DELTA 1 DEB

Satellite information

Favourite Embed

Satellite Type and Status

DEBRISIN ORBIT

Key statistics

Satellite DELTA 1 DEB at a glance.

Uptime

17355

Days in orbit

Revolutions

≈ 13.9

Per day

Orbit

SSO

Sun Synchronous Orbit

Inclination

98.8

Latest

Satellite identification and parameters

Extended collection of information and parameters for DELTA 1 DEB.

Object identification

Identified? True

Debris? True

Object name: DELTA 1 DEB

International designator: 1978-026KB

Object number (NORAD): 37664

Object ID (CCSDS): 37664

Country: UNITED STATES OF AMERICA (US)

Current information (Y/N): Y

RCS size: SMALL

Orbital parameters

Period: 103.691 minutes

Inclination: 98.7838 deg

SMA: 7311.17 km

Apoapsis: 988.667 km

Periapsis: 877.404 km

RAAN: 92.6832 deg

Eccentricy: 0.00760915

Argument of periapsis: 358.6325 deg

Mean anomaly: 120.8919 deg

Mean motion: 13.88744674 rev/day

Mean motion (dot): 0.00000153 rev/day2

B* drag term: 0.00015725744 1/REarth

Two-line elements (TLE)

Creation date: Sept. 2, 2025, 11:42 p.m.

Reference frame: TEME

Reference center: EARTH

Epoch: Sept. 2, 2025, 10:01 a.m. UTC

TLE line 0: 0 DELTA 1 DEB

TLE line 1: 1 37664U 78026KB 25245.41771014 .00000153 00000-0 15726-3 0 9995

TLE line 2: 2 37664 98.7838 92.6832 0076091 358.6325 120.8919 13.88744674291392

Live tracking on map

Real-time ground track for satellite DELTA 1 DEB.

In-orbit conjunctions

A list of the most updated potential collisions computed for object DELTA 1 DEB.

Target Orbit TCA Probability of collision Miss distance Type
SL-14 R/B LEO 2025-04-13 15:48:32 0.0009133312 176.0 (m) ROCKET BODY
CZ-6A DEB LEO 2024-11-06 00:43:22 0.0001006382 392.0 (m) DEBRIS

Associated space launch

Earth observation satellite

DELTA 1 DEB was lifted into orbit during the mission ‘Delta 2910 | Landsat 3’, on board a Delta 2910 space rocket.

The launch took place on March 5, 1978, 5:54 p.m. from Space Launch Complex 2W.

For more information about the launch, click the button.

Launch to space Delta 2910 | Landsat 3
Delta 2910 | Landsat 3

Agency: N/A

Status: Launch Successful

Launch date: March 5, 1978, 5:54 p.m. UTC

Rocket: Delta 2910

Launch pad: Space Launch Complex 2W

Location: Vandenberg SFB, CA, USA

...

Latest news about this satellite

There are no fresh news available about this satellite. Check back as we update our databases every day.


Newsletter sign-up

Weekly statistics, charts and insights to help you stay on top of the space industry.